Terug naar catalogus

THORAD AGENA D DEB

ActiefSSO
NORAD 4773·DEBRIS·🇺🇸 United States

Gelanceerd Apr 8, 1970 vanaf Vandenberg Space Force Base

Loading…

Volgende Passages (komende 24 uur)

TLE

VersSource: Space-Track

Epoch: Sep 14, 2026, 08:59 UTC

1 04773U 70025DT  26257.37463142  .00000118  00000-0  23030-3 0  9998
2 04773 100.0194 310.6994 0030999  34.5815  25.9372 13.57133040780196

Volg THORAD AGENA D DEB in realtime met AllMySat

Download on the App Store